You are not logged in, Click here to log in
ICAO: LTBA Country: 土耳其 位於伊斯坦堡市中心西南15公里
Latitude: 40.9761 Longitude: 28.8142
Total Arrivals: 21 Total Departures: 20
Latest Arrival: K6T93 (HECA-LTBA)Jason. Li Latest Departure: TK1861K (LTBA-LIRF)Jason. Li
Scenery:
METAR : LTBA 171250Z 03014G24KT 9999 SCT035 27/15 Q1007 NOSIG

阿塔圖克國際機場IST